GW0655 Weather Reports


time (UTC)temp
F
wind
direction
speed
knots
gust
knots
rain 1hr
in
rain 24hr
in
rain mn
in
humidity
%
barometer
mb
20260831033726 88 217 1.7 4.3 0.00 0.00 0.00 59 1016.5
20260831033226 88 257 1.7 1.7 0.00 0.00 0.00 59 1016.5
20260831032721 88 200 1.7 2.6 0.00 0.00 0.00 59 1016.5
20260831032216 88 215 2.6 2.6 0.00 0.00 0.00 59 1016.5
20260831031711 88 226 1.7 1.7 0.00 0.00 0.00 58 1016.2
20260831031205 88 135 2.6 4.3 0.00 0.00 0.00 58 1016.5
20260831030704 89 197 1.7 2.6 0.00 0.00 0.00 58 1015.8
20260831030203 89 242 0.9 1.7 0.00 0.00 0.00 58 1016.2
20260831025702 89 199 1.7 2.6 0.00 0.00 0.00 57 1016.2
20260831025157 89 169 3.5 4.3 0.00 0.00 0.00 57 1015.8
20260831024653 89 125 1.7 1.7 0.00 0.00 0.00 57 1015.8
20260831024151 89 211 3.5 5.2 0.00 0.00 0.00 57 1015.8
20260831023649 89 182 0.0 0.9 0.00 0.00 0.00 57 1015.8
20260831023143 89 134 6.1 9.6 0.00 0.00 0.00 57 1015.8
20260831022633 89 170 0.9 0.9 0.00 0.00 0.00 57 1015.5
20260831022128 89 113 2.6 2.6 0.00 0.00 0.00 56 1015.2
20260831021627 89 102 0.9 1.7 0.00 0.00 0.00 57 1015.2
20260831021122 89 115 0.9 4.3 0.00 0.00 0.00 57 1015.5
20260831020618 90 359 0.9 1.7 0.00 0.00 0.00 57 1015.2
20260831020113 90 162 2.6 4.3 0.00 0.00 0.00 57 1015.2
20260831015609 90 109 2.6 4.3 0.00 0.00 0.00 56 1015.2
20260831015109 90 148 4.3 6.1 0.00 0.00 0.00 56 1015.2
20260831014603 91 122 4.3 6.1 0.00 0.00 0.00 56 1014.8
20260831014059 91 170 7.0 7.0 0.00 0.00 0.00 55 1014.8
20260831013555 91 154 2.6 4.3 0.00 0.00 0.00 55 1014.5
20260831013054 91 39 3.5 4.3 0.00 0.00 0.00 54 1014.8
20260831012549 92 258 2.6 5.2 0.00 0.00 0.00 52 1014.5
20260831012044 93 160 6.1 7.8 0.00 0.00 0.00 48 1014.5
20260831011543 93 137 6.1 8.7 0.00 0.00 0.00 44 1014.5
20260831011039 93 153 0.0 0.0 0.00 0.00 0.00 43 1014.1
20260831010534 94 160 0.0 0.9 0.00 0.00 0.00 43 1014.1
20260831010030 94 212 0.0 0.0 0.00 0.00 0.00 42 1014.1
20260831005525 95 189 0.0 0.0 0.00 0.00 0.00 41 1014.1
20260831005024 95 107 0.0 0.0 0.00 0.00 0.00 41 1014.5
20260831004521 95 223 0.9 0.9 0.00 0.00 0.00 40 1014.5
20260831004016 95 152 4.3 4.3 0.00 0.00 0.00 40 1014.1
20260831003512 96 167 1.7 1.7 0.00 0.00 0.00 40 1014.1
20260831003008 96 111 2.6 2.6 0.00 0.00 0.00 40 1013.8
20260831002506 96 230 0.0 0.9 0.00 0.00 0.00 40 1014.1
20260831002001 96 111 0.9 0.9 0.00 0.00 0.00 40 1014.1
20260831001456 96 114 2.6 4.3 0.00 0.00 0.00 39 1014.1
20260831000953 96 162 2.6 4.3 0.00 0.00 0.00 39 1014.1
20260831000449 96 169 2.6 2.6 0.00 0.00 0.00 40 1014.1
20260830235947 97 222 0.0 0.9 0.00 0.00 0.00 40 1013.8
20260830235442 97 166 2.6 2.6 0.00 0.00 0.00 40 1014.1
20260830234938 97 221 1.7 2.6 0.00 0.00 0.00 39 1014.1
20260830234432 98 227 1.7 2.6 0.00 0.00 0.00 39 1014.1
20260830233928 97 148 1.7 1.7 0.00 0.00 0.00 39 1014.1
20260830233424 98 134 6.1 7.0 0.00 0.00 0.00 39 1014.5
20260830232919 98 60 1.7 1.7 0.00 0.00 0.00 39 1014.1
20260830232415 98 194 2.6 4.3 0.00 0.00 0.00 39 1014.5
20260830231912 99 204 1.7 1.7 0.00 0.00 0.00 39 1014.1
20260830231406 98 174 0.0 0.9 0.00 0.00 0.00 39 1014.1
20260830230906 97 248 0.9 0.9 0.00 0.00 0.00 40 1014.1
20260830230401 98 193 0.9 1.7 0.00 0.00 0.00 39 1014.1
20260830225900 97 59 0.0 0.9 0.00 0.00 0.00 40 1014.1
20260830225356 97 149 4.3 7.0 0.00 0.00 0.00 40 1014.1
20260830224850 98 131 4.3 6.1 0.00 0.00 0.00 40 1014.5
20260830224344 99 248 0.9 1.7 0.00 0.00 0.00 39 1014.1
20260830223841 100 156 2.6 4.3 0.00 0.00 0.00 38 1014.1
20260830223337 100 45 0.0 0.0 0.00 0.00 0.00 38 1014.1
20260830222836 100 284 0.9 0.9 0.00 0.00 0.00 38 1014.1
20260830222332 99 138 1.7 2.6 0.00 0.00 0.00 39 1014.5
20260830221827 100 132 4.3 5.2 0.00 0.00 0.00 37 1014.1
20260830221324 100 125 1.7 1.7 0.00 0.00 0.00 37 1014.5
20260830220824 100 337 0.9 1.7 0.00 0.00 0.00 38 1014.5
20260830220324 101 87 5.2 6.1 0.00 0.00 0.00 37 1014.1
20260830215821 100 217 2.6 4.3 0.00 0.00 0.00 36 1014.5
20260830215316 100 212 4.3 6.1 0.00 0.00 0.00 37 1014.1
20260830214811 101 149 4.3 5.2 0.00 0.00 0.00 35 1014.5
20260830214307 101 263 1.7 1.7 0.00 0.00 0.00 36 1014.5
20260830213806 102 220 4.3 7.0 0.00 0.00 0.00 35 1014.5
20260830213301 102 194 2.6 2.6 0.00 0.00 0.00 35 1014.5
20260830212757 102 261 2.6 4.3 0.00 0.00 0.00 35 1014.5
20260830212253 100 174 0.0 0.9 0.00 0.00 0.00 37 1014.5
20260830211752 100 266 2.6 2.6 0.00 0.00 0.00 37 1015.2
20260830211251 100 196 1.7 1.7 0.00 0.00 0.00 37 1014.8
20260830210747 100 271 0.9 1.7 0.00 0.00 0.00 39 1014.8
20260830210246 100 223 3.5 4.3 0.00 0.00 0.00 38 1015.2
20260830205744 100 237 2.6 2.6 0.00 0.00 0.00 39 1015.2
20260830205239 100 223 3.5 5.2 0.00 0.00 0.00 39 1015.5
20260830204734 100 203 4.3 5.2 0.00 0.00 0.00 38 1015.5
20260830204232 99 237 1.7 2.6 0.00 0.00 0.00 39 1015.5
20260830203729 102 204 3.5 4.3 0.00 0.00 0.00 38 1015.5
20260830203219 101 249 0.9 0.9 0.00 0.00 0.00 37 1015.8
20260830202718 99 270 1.7 1.7 0.00 0.00 0.00 40 1015.8
20260830202214 99 9 1.7 1.7 0.00 0.00 0.00 40 1015.8
20260830201713 98 238 3.5 4.3 0.00 0.00 0.00 41 1016.2
20260830201209 97 264 0.0 0.9 0.00 0.00 0.00 44 1016.2
20260830200704 96 228 2.6 4.3 0.00 0.00 0.00 45 1016.2
20260830200203 100 221 3.5 5.2 0.00 0.00 0.00 40 1016.2
20260830195659 99 132 5.2 6.1 0.00 0.00 0.00 42 1016.2
20260830195156 99 261 1.7 1.7 0.00 0.00 0.00 41 1016.2
20260830194655 99 215 4.3 6.1 0.00 0.00 0.00 41 1016.5
20260830194150 97 237 0.9 0.9 0.00 0.00 0.00 45 1016.2
20260830193644 97 101 2.6 4.3 0.00 0.00 0.00 44 1016.9
20260830193139 97 272 2.6 2.6 0.00 0.00 0.00 44 1016.5
20260830192634 97 179 4.3 6.1 0.00 0.00 0.00 44 1016.9
20260830192129 96 188 0.9 0.9 0.00 0.00 0.00 46 1016.9
20260830191625 96 358 0.9 0.9 0.00 0.00 0.00 46 1016.9
20260830191120 98 138 4.3 6.1 0.00 0.00 0.00 42 1017.2
20260830190615 99 354 1.7 1.7 0.00 0.00 0.00 45 1017.2
20260830190109 97 216 0.9 0.9 0.00 0.00 0.00 45 1017.2
20260830185603 96 153 2.6 4.3 0.00 0.00 0.00 46 1017.2
20260830185059 96 293 0.9 0.9 0.00 0.00 0.00 46 1017.5
20260830184558 97 284 1.7 2.6 0.00 0.00 0.00 45 1017.5
20260830184052 96 194 5.2 7.0 0.00 0.00 0.00 47 1017.5
20260830183547 96 208 3.5 5.2 0.00 0.00 0.00 46 1017.5
20260830183043 96 148 2.6 4.3 0.00 0.00 0.00 48 1017.5
20260830182538 95 226 2.6 2.6 0.00 0.00 0.00 48 1017.9
20260830182034 96 173 1.7 2.6 0.00 0.00 0.00 47 1017.9
20260830181531 95 192 0.9 0.9 0.00 0.00 0.00 49 1018.2
20260830181030 94 73 3.5 5.2 0.00 0.00 0.00 51 1017.9
20260830180529 95 162 3.5 4.3 0.00 0.00 0.00 50 1018.2
20260830180028 93 268 3.5 5.2 0.00 0.00 0.00 50 1018.2
20260830175527 94 165 5.2 7.8 0.00 0.00 0.00 52 1018.2
20260830175023 94 267 1.7 1.7 0.00 0.00 0.00 51 1018.2
20260830174519 93 183 0.9 1.7 0.00 0.00 0.00 53 1018.9
20260830174014 94 233 3.5 5.2 0.00 0.00 0.00 52 1018.5
20260830173509 93 256 0.9 1.7 0.00 0.00 0.00 53 1018.5
20260830173004 92 228 1.7 1.7 0.00 0.00 0.00 54 1018.9
20260830172501 92 245 1.7 1.7 0.00 0.00 0.00 54 1018.9
20260830171956 93 191 3.5 4.3 0.00 0.00 0.00 53 1018.9
20260830171451 94 104 2.6 4.3 0.00 0.00 0.00 51 1019.3
20260830170951 91 249 2.6 2.6 0.00 0.00 0.00 57 1018.9
20260830170446 91 233 2.6 4.3 0.00 0.00 0.00 57 1019.3
20260830165944 90 199 3.5 5.2 0.00 0.00 0.00 58 1018.9
20260830165441 90 239 1.7 2.6 0.00 0.00 0.00 59 1019.3
20260830164936 91 271 0.0 0.9 0.00 0.00 0.00 58 1019.3
20260830164432 90 191 1.7 1.7 0.00 0.00 0.00 59 1019.7
20260830163928 91 192 3.5 5.2 0.00 0.00 0.00 57 1019.3
20260830163425 91 239 0.0 0.9 0.00 0.00 0.00 58 1019.7
20260830162924 90 169 2.6 2.6 0.00 0.00 0.00 60 1019.7
20260830162420 90 192 4.3 5.2 0.00 0.00 0.00 59 1019.7
20260830161920 89 165 5.2 6.1 0.00 0.00 0.00 61 1019.7
20260830161420 89 234 2.6 2.6 0.00 0.00 0.00 60 1019.7
20260830160915 89 167 2.6 2.6 0.00 0.00 0.00 60 1019.7
20260830160411 88 230 0.0 0.9 0.00 0.00 0.00 63 1019.7
20260830155906 87 98 0.9 1.7 0.00 0.00 0.00 65 1019.3
20260830155402 89 144 1.7 2.6 0.00 0.00 0.00 63 1019.7
20260830154857 88 160 1.7 2.6 0.00 0.00 0.00 65 1019.7
20260830154353 89 195 0.9 1.7 0.00 0.00 0.00 64 1019.7
20260830153850 88 215 3.5 4.3 0.00 0.00 0.00 64 1019.3
20260830153344 88 233 4.3 6.1 0.00 0.00 0.00 63 1019.3
20260830152843 89 279 5.2 6.1 0.00 0.00 0.00 65 1018.9
20260830152338 88 230 2.6 2.6 0.00 0.00 0.00 66 1019.3
20260830151833 88 41 1.7 1.7 0.00 0.00 0.00 68 1019.3
20260830151332 89 261 3.5 4.3 0.00 0.00 0.00 68 1018.9
20260830150827 87 326 0.0 0.9 0.00 0.00 0.00 69 1018.9
20260830150326 87 197 4.3 7.0 0.00 0.00 0.00 69 1018.9
20260830145821 87 215 3.5 6.1 0.00 0.00 0.00 71 1019.3
20260830145316 85 219 0.9 0.9 0.00 0.00 0.00 74 1018.9
20260830144811 86 193 2.6 4.3 0.00 0.00 0.00 73 1018.9
20260830144307 85 202 0.9 0.9 0.00 0.00 0.00 75 1018.9
20260830143803 86 222 2.6 2.6 0.00 0.00 0.00 74 1018.9
20260830143302 84 246 0.9 0.9 0.00 0.00 0.00 76 1018.9
20260830142756 83 162 1.7 2.6 0.00 0.00 0.00 78 1018.9
20260830142252 83 192 3.5 5.2 0.00 0.00 0.00 79 1018.9
20260830141747 82 278 1.7 1.7 0.00 0.00 0.00 79 1019.3
20260830141242 82 199 3.5 4.3 0.00 0.00 0.00 80 1019.3
20260830140737 82 165 2.6 4.3 0.00 0.00 0.00 79 1018.9
20260830140232 83 206 0.0 0.0 0.00 0.00 0.00 78 1018.9
20260830135726 82 126 1.7 1.7 0.00 0.00 0.00 80 1019.3
20260830135222 81 220 1.7 1.7 0.00 0.00 0.00 81 1018.9
20260830134717 81 177 2.6 4.3 0.00 0.00 0.00 80 1019.3
20260830134212 80 220 2.6 2.6 0.00 0.00 0.00 82 1019.3
20260830133708 81 152 2.6 2.6 0.00 0.00 0.00 82 1018.9
20260830133204 80 193 0.9 0.9 0.00 0.00 0.00 82 1018.9
20260830132659 80 228 0.9 0.9 0.00 0.00 0.00 82 1018.5
20260830132155 79 216 1.7 1.7 0.00 0.00 0.00 84 1018.9
20260830131653 79 204 1.7 1.7 0.00 0.00 0.00 85 1018.9
20260830131148 78 194 0.9 1.7 0.00 0.00 0.00 86 1018.5
20260830130648 78 189 0.9 0.9 0.00 0.00 0.00 87 1018.5
20260830130143 77 246 0.0 0.9 0.00 0.00 0.00 88 1018.5
20260830125643 77 203 0.9 0.9 0.00 0.00 0.00 88 1018.5
20260830125138 77 245 0.0 0.0 0.00 0.00 0.00 89 1018.5
20260830124636 77 232 1.7 1.7 0.00 0.00 0.00 89 1018.9
20260830124131 76 233 0.0 0.9 0.00 0.00 0.00 89 1018.5
20260830123629 76 227 0.0 0.9 0.00 0.00 0.00 89 1018.2
20260830123124 76 220 0.0 0.9 0.00 0.00 0.00 89 1018.2
20260830122621 76 219 0.0 0.9 0.00 0.00 0.00 89 1018.2
20260830122116 76 203 0.9 0.9 0.00 0.00 0.00 89 1018.2
20260830121612 76 247 0.0 0.9 0.00 0.00 0.00 89 1017.9
20260830121111 76 216 0.9 1.7 0.00 0.00 0.00 89 1017.9
20260830120606 76 238 0.0 0.9 0.00 0.00 0.00 88 1018.2
20260830115559 76 212 0.9 0.9 0.00 0.00 0.00 88 1018.2
20260830115054 76 257 0.9 0.9 0.00 0.00 0.00 88 1018.2
20260830114550 76 129 0.0 0.0 0.00 0.00 0.00 88 1018.2
20260830114050 76 242 0.0 0.0 0.00 0.00 0.00 88 1017.9
20260830113545 76 252 0.0 0.0 0.00 0.00 0.00 88 1017.9
20260830113040 76 199 0.9 0.9 0.00 0.00 0.00 88 1017.9
20260830112536 76 218 0.0 0.0 0.00 0.00 0.00 88 1017.9
20260830112032 76 241 0.0 0.0 0.00 0.00 0.00 88 1017.9
20260830111528 76 238 0.0 0.0 0.00 0.00 0.00 88 1017.9
20260830111024 76 253 0.0 0.9 0.00 0.00 0.00 88 1017.9
20260830110524 76 228 0.0 0.9 0.00 0.00 0.00 88 1017.9
20260830110019 76 220 0.9 0.9 0.00 0.00 0.00 88 1017.9
20260830105514 76 248 0.0 0.0 0.00 0.00 0.00 87 1017.9
20260830105010 76 242 0.0 0.9 0.00 0.00 0.00 87 1017.9
20260830104507 77 229 0.0 0.0 0.00 0.00 0.00 87 1017.5
20260830104002 77 254 0.0 0.0 0.00 0.00 0.00 86 1017.9
20260830103457 77 236 0.0 0.0 0.00 0.00 0.00 86 1017.5
20260830102955 77 200 0.0 0.0 0.00 0.00 0.00 86 1017.9
20260830102450 77 180 0.0 0.9 0.00 0.00 0.00 86 1017.5
20260830101947 77 238 0.0 0.0 0.00 0.00 0.00 85 1017.5
20260830101442 77 228 0.0 0.9 0.00 0.00 0.00 85 1017.9
20260830100941 77 235 0.9 1.7 0.00 0.00 0.00 85 1017.9
20260830100441 77 243 0.0 0.9 0.00 0.00 0.00 85 1017.5
20260830095939 77 252 0.0 0.9 0.00 0.00 0.00 84 1017.5
20260830095435 77 258 0.0 0.0 0.00 0.00 0.00 84 1017.5
20260830094931 78 176 0.0 0.0 0.00 0.00 0.00 83 1017.5
20260830094427 78 255 0.0 0.0 0.00 0.00 0.00 83 1017.5
20260830093923 78 210 1.7 1.7 0.00 0.00 0.00 83 1017.5
20260830093418 78 242 1.7 1.7 0.00 0.00 0.00 82 1017.5
20260830092913 78 228 0.0 0.9 0.00 0.00 0.00 82 1017.5
20260830092409 78 239 0.9 0.9 0.00 0.00 0.00 82 1017.5
20260830091906 78 213 1.7 1.7 0.00 0.00 0.00 82 1017.5
20260830091405 78 250 0.9 0.9 0.00 0.00 0.00 81 1017.2
20260830090904 78 183 1.7 1.7 0.00 0.00 0.00 81 1017.5
20260830090400 78 198 0.9 0.9 0.00 0.00 0.00 81 1017.5
20260830085900 78 233 0.9 0.9 0.00 0.00 0.00 81 1017.9
20260830085354 78 235 0.0 0.0 0.00 0.00 0.00 80 1017.9
20260830084851 79 167 0.0 0.0 0.00 0.00 0.00 80 1017.5
20260830084346 79 224 0.0 0.9 0.00 0.00 0.00 80 1017.5
20260830083841 78 216 1.7 1.7 0.00 0.00 0.00 80 1017.5
20260830083337 78 262 0.9 0.9 0.00 0.00 0.00 80 1017.9
20260830082836 79 227 0.9 0.9 0.00 0.00 0.00 80 1017.5
20260830082331 79 222 0.9 1.7 0.00 0.00 0.00 79 1017.5
20260830081827 79 241 0.0 0.9 0.00 0.00 0.00 78 1017.5
20260830081326 80 213 0.9 1.7 0.00 0.00 0.00 78 1017.9
20260830080821 80 232 0.9 1.7 0.00 0.00 0.00 78 1017.9
20260830080318 80 259 0.0 0.0 0.00 0.00 0.00 77 1017.9
20260830075817 80 212 2.6 4.3 0.00 0.00 0.00 77 1017.9
20260830075313 80 243 0.9 1.7 0.00 0.00 0.00 77 1017.9
20260830074807 80 249 1.7 1.7 0.00 0.00 0.00 76 1017.9
20260830074303 80 240 0.9 0.9 0.00 0.00 0.00 76 1017.9
20260830073759 80 173 1.7 1.7 0.00 0.00 0.00 76 1017.9
20260830073254 80 262 0.9 0.9 0.00 0.00 0.00 76 1017.9
20260830072748 81 167 2.6 2.6 0.00 0.00 0.00 75 1017.9
20260830072244 81 219 2.6 2.6 0.00 0.00 0.00 75 1017.9
20260830071739 81 222 1.7 1.7 0.00 0.00 0.00 74 1017.9
20260830071238 81 214 0.9 1.7 0.00 0.00 0.00 74 1018.2
20260830070737 81 126 0.9 1.7 0.00 0.00 0.00 74 1018.2
20260830070232 81 229 0.9 0.9 0.00 0.00 0.00 73 1018.2
20260830065731 82 184 2.6 4.3 0.00 0.00 0.00 73 1018.2
20260830065226 82 228 0.9 1.7 0.00 0.00 0.00 73 1018.2
20260830064724 82 205 0.9 1.7 0.00 0.00 0.00 73 1018.2
20260830064220 82 217 0.9 1.7 0.00 0.00 0.00 72 1018.2
20260830063714 82 239 0.9 0.9 0.00 0.00 0.00 72 1017.9
20260830063213 82 231 0.0 0.9 0.00 0.00 0.00 72 1018.2
20260830062708 82 223 0.0 0.9 0.00 0.00 0.00 71 1018.2
20260830062203 82 158 0.9 0.9 0.00 0.00 0.00 71 1017.9
20260830061702 82 245 1.7 1.7 0.00 0.00 0.00 71 1018.2
20260830061158 83 207 2.6 4.3 0.00 0.00 0.00 71 1017.9
20260830060655 83 297 0.9 0.9 0.00 0.00 0.00 71 1017.9
20260830060151 83 134 1.7 1.7 0.00 0.00 0.00 71 1017.9
20260830055646 83 244 0.9 1.7 0.00 0.00 0.00 70 1017.9
20260830055143 84 183 0.0 0.9 0.00 0.00 0.00 70 1017.9
20260830054637 84 109 0.9 1.7 0.00 0.00 0.00 69 1017.9
20260830054132 84 223 2.6 2.6 0.00 0.00 0.00 69 1017.5
20260830053628 84 203 1.7 1.7 0.00 0.00 0.00 69 1017.9
20260830053127 84 207 1.7 1.7 0.00 0.00 0.00 69 1017.9
20260830052623 84 255 2.6 4.3 0.00 0.00 0.00 69 1017.9
20260830052118 84 181 1.7 2.6 0.00 0.00 0.00 69 1017.9
20260830051613 84 231 1.7 1.7 0.00 0.00 0.00 69 1017.9
20260830051109 84 253 0.0 0.9 0.00 0.00 0.00 69 1017.9
20260830050607 84 249 0.0 0.9 0.00 0.00 0.00 69 1017.9
20260830045555 85 193 0.0 0.9 0.00 0.01 0.01 67 1017.5
20260830045050 86 253 0.0 0.0 0.00 0.01 0.01 67 1017.5
20260830044544 86 201 1.7 2.6 0.00 0.01 0.01 67 1017.5
20260830044039 86 252 0.9 0.9 0.00 0.01 0.01 66 1017.9
20260830043535 86 161 1.7 1.7 0.00 0.01 0.01 66 1017.9
20260830043033 86 165 1.7 2.6 0.00 0.01 0.01 66 1017.5
20260830042531 86 273 0.9 1.7 0.00 0.01 0.01 66 1017.9
20260830042027 86 221 1.7 1.7 0.00 0.01 0.01 65 1017.9
20260830041526 87 245 0.9 1.7 0.00 0.01 0.01 65 1017.5
20260830041025 87 218 2.6 4.3 0.00 0.01 0.01 65 1017.9
20260830040521 87 240 0.0 0.9 0.00 0.01 0.01 65 1017.9
20260830040016 87 237 1.7 2.6 0.00 0.01 0.01 64 1017.5
20260830035514 87 235 1.7 1.7 0.00 0.01 0.01 64 1017.9
20260830035010 87 224 0.9 0.9 0.00 0.01 0.01 63 1017.9
20260830034506 88 209 1.7 2.6 0.00 0.01 0.01 63 1017.5